This is the latest recevied weather packets stored in our database for station/object WW3TRG. If no packets are shown the sender has not sent any weather packets the latest 10 day(s).
| Time | Temp. | Humidity | Pressure | Rain* | Wind** | Luminosity | Snow |
|---|---|---|---|---|---|---|---|
| 1777613215 | 5.56° C | 99% | 1011.8 hPa | 0 mm | - | 0 W/m² | - |
| 1777612912 | 5.56° C | 99% | 1011.8 hPa | 0 mm | - | 0 W/m² | - |
| 1777612608 | 5.56° C | 99% | 1011.8 hPa | 0 mm | - | 0 W/m² | - |
| 1777612304 | 5.56° C | 99% | 1011.6 hPa | 0 mm | - | 0 W/m² | - |
| 1777611999 | 5.56° C | 99% | 1011.6 hPa | 0 mm | - | 0 W/m² | - |
| 1777611694 | 6.11° C | 99% | 1011.9 hPa | 0 mm | - | 0 W/m² | - |
| 1777611391 | 6.11° C | 99% | 1011.7 hPa | 0 mm | - | 0 W/m² | - |
| 1777611089 | 6.11° C | 99% | 1011.7 hPa | 0 mm | - | 0 W/m² | - |
| 1777610789 | 6.67° C | 99% | 1011.9 hPa | 0 mm | - | 0 W/m² | - |
| 1777610483 | 6.67° C | 99% | 1011.8 hPa | 0 mm | - | 0 W/m² | - |
| 1777610179 | 6.67° C | 99% | 1011.8 hPa | 0 mm | - | 0 W/m² | - |
| 1777609876 | 6.67° C | 99% | 1011.6 hPa | 0 mm | - | 0 W/m² | - |
| 1777609572 | 7.22° C | 99% | 1011.7 hPa | 0 mm | - | 0 W/m² | - |
| 1777609269 | 7.22° C | 99% | 1011.5 hPa | 0 mm | - | 0 W/m² | - |
| 1777608967 | 7.22° C | 99% | 1011.5 hPa | 0 mm | - | 0 W/m² | - |
| 1777608664 | 7.22° C | 99% | 1011.4 hPa | 0 mm | - | 0 W/m² | - |
| 1777608361 | 7.22° C | 99% | 1011.5 hPa | 0 mm | - | 0 W/m² | - |
| 1777608059 | 7.78° C | 99% | 1011.4 hPa | 0 mm | - | 0 W/m² | - |
| 1777607754 | 7.78° C | 99% | 1011.5 hPa | 0 mm | - | 0 W/m² | - |
| 1777607451 | 7.78° C | 99% | 1011.3 hPa | 0 mm | - | 0 W/m² | - |
| 1777607147 | 7.22° C | 99% | 1011.5 hPa | 0 mm | - | 0 W/m² | - |
| 1777606843 | 7.78° C | 99% | 1011.6 hPa | 0 mm | - | 0 W/m² | - |
| 1777606539 | 7.78° C | 99% | 1011.4 hPa | 0 mm | - | 0 W/m² | - |
| 1777606234 | 7.78° C | 99% | 1011.6 hPa | 0 mm | - | 0 W/m² | - |
| 1777605930 | 7.78° C | 99% | 1011.5 hPa | 0 mm | - | 0 W/m² | - |
* Rain latest hour (hover to see other rain measurements)
** Current wind speed in m/s (hover to see current wind gust speed)